DateTime,Index
2003073106,0.0
2003073112,0.0
2003073118,0.0
2003080100,0.0
2003080106,0.0
2003080112,0.0
2003080118,0.0
2003080200,0.0
2003080206,0.0
2003080212,0.0
2003080218,0.0
2003080300,0.0
2003080306,1225.0
2003080312,2025.0
2003080318,2025.0
2003080400,3025.0
2003080406,3025.0
2003080412,3025.0
2003080418,4225.0
2003080500,6400.0
2003080506,6400.0
2003080512,7225.0
2003080518,8100.0
2003080600,9025.0
2003080606,9025.0
2003080612,9025.0
2003080618,10000.0
2003080700,12100.0
2003080706,12100.0
2003080712,12100.0
2003080718,11025.0
2003080800,10000.0
2003080806,8100.0
2003080812,8100.0
2003080818,6400.0
2003080900,4225.0
2003080906,2025.0
2003080912,2025.0
2003080918,0.0
2003081000,0.0
